| time (UTC) | temp F | wind direction | speed knots | gust knots | rain 1hr in | rain 24hr in | rain mn in | humidity % | barometer mb |
| 20260505022804 | 48 | 303 | 3.5 | 7.8 | 0.00 | 0.00 | 0.00 | 52 | 1013.2 |
| 20260505022604 | 48 | 298 | 3.5 | 8.7 | 0.00 | 0.00 | 0.00 | 52 | 1013.2 |
| 20260505022404 | 48 | 309 | 3.5 | 8.7 | 0.00 | 0.00 | 0.00 | 52 | 1013.2 |
| 20260505022205 | 48 | 309 | 2.6 | 8.7 | 0.00 | 0.00 | 0.00 | 51 | 1013.1 |
| 20260505022005 | 48 | 307 | 3.5 | 12.2 | 0.00 | 0.00 | 0.00 | 51 | 1013.2 |
| 20260505021804 | 48 | 294 | 4.3 | 12.2 | 0.00 | 0.00 | 0.00 | 51 | 1013.1 |
| 20260505021604 | 48 | 289 | 3.5 | 12.2 | 0.00 | 0.00 | 0.00 | 51 | 1013.1 |
| 20260505021404 | 48 | 300 | 5.2 | 12.2 | 0.00 | 0.00 | 0.00 | 51 | 1013.1 |
| 20260505021225 | 48 | 291 | 5.2 | 12.2 | 0.00 | 0.00 | 0.00 | 51 | 1013.0 |
| 20260505021025 | 48 | 302 | 4.3 | 11.3 | 0.00 | 0.00 | 0.00 | 51 | 1013.1 |
| 20260505020825 | 48 | 298 | 4.3 | 9.6 | 0.00 | 0.00 | 0.00 | 51 | 1013.0 |
| 20260505020604 | 48 | 291 | 3.5 | 9.6 | 0.00 | 0.00 | 0.00 | 51 | 1013.0 |
| 20260505020405 | 48 | 300 | 4.3 | 9.6 | 0.00 | 0.00 | 0.00 | 51 | 1013.0 |
| 20260505020204 | 48 | 284 | 5.2 | 8.7 | 0.00 | 0.00 | 0.00 | 51 | 1013.0 |
| 20260505020004 | 48 | 289 | 3.5 | 10.4 | 0.00 | 0.00 | 0.00 | 51 | 1013.0 |
| 20260505015805 | 48 | 311 | 3.5 | 10.4 | 0.00 | 0.00 | 0.00 | 51 | 1012.9 |
| 20260505015604 | 48 | 305 | 3.5 | 10.4 | 0.00 | 0.00 | 0.00 | 51 | 1012.9 |
| 20260505015404 | 48 | 302 | 3.5 | 10.4 | 0.00 | 0.00 | 0.00 | 51 | 1012.8 |
| 20260505015205 | 48 | 330 | 5.2 | 13.0 | 0.00 | 0.00 | 0.00 | 51 | 1012.8 |
| 20260505015005 | 48 | 324 | 4.3 | 13.0 | 0.00 | 0.00 | 0.00 | 50 | 1012.9 |
| 20260505014804 | 49 | 314 | 5.2 | 13.0 | 0.00 | 0.00 | 0.00 | 50 | 1012.9 |
| 20260505014604 | 49 | 308 | 6.1 | 13.0 | 0.00 | 0.00 | 0.00 | 50 | 1012.9 |
| 20260505014405 | 49 | 312 | 8.7 | 13.0 | 0.00 | 0.00 | 0.00 | 50 | 1012.9 |
| 20260505014204 | 49 | 323 | 7.8 | 12.2 | 0.00 | 0.00 | 0.00 | 50 | 1012.8 |
| 20260505014005 | 49 | 311 | 6.1 | 12.2 | 0.00 | 0.00 | 0.00 | 50 | 1012.9 |
| 20260505013805 | 49 | 305 | 6.1 | 12.2 | 0.00 | 0.00 | 0.00 | 50 | 1012.9 |
| 20260505013604 | 49 | 304 | 6.1 | 13.0 | 0.00 | 0.00 | 0.00 | 50 | 1012.8 |
| 20260505013404 | 49 | 316 | 6.1 | 13.0 | 0.00 | 0.00 | 0.00 | 50 | 1012.8 |
| 20260505013205 | 49 | 331 | 7.0 | 13.0 | 0.00 | 0.00 | 0.00 | 49 | 1012.8 |
| 20260505013004 | 49 | 313 | 5.2 | 13.0 | 0.00 | 0.00 | 0.00 | 49 | 1012.8 |
| 20260505012804 | 49 | 320 | 6.1 | 13.0 | 0.00 | 0.00 | 0.00 | 49 | 1012.8 |
| 20260505012604 | 49 | 309 | 7.8 | 12.2 | 0.00 | 0.00 | 0.00 | 49 | 1012.8 |
| 20260505012404 | 49 | 293 | 4.3 | 11.3 | 0.00 | 0.00 | 0.00 | 49 | 1012.8 |
| 20260505012205 | 49 | 308 | 7.0 | 11.3 | 0.00 | 0.00 | 0.00 | 49 | 1012.8 |
| 20260505012004 | 49 | 316 | 5.2 | 11.3 | 0.00 | 0.00 | 0.00 | 49 | 1012.8 |
| 20260505011804 | 49 | 295 | 6.1 | 11.3 | 0.00 | 0.00 | 0.00 | 49 | 1012.7 |
| 20260505011604 | 50 | 311 | 4.3 | 11.3 | 0.00 | 0.00 | 0.00 | 49 | 1012.7 |
| 20260505011405 | 50 | 314 | 5.2 | 11.3 | 0.00 | 0.00 | 0.00 | 49 | 1012.7 |
| 20260505011204 | 50 | 297 | 5.2 | 8.7 | 0.00 | 0.00 | 0.00 | 49 | 1012.7 |
| 20260505011005 | 49 | 300 | 4.3 | 8.7 | 0.00 | 0.00 | 0.00 | 49 | 1012.6 |
| 20260505010804 | 49 | 306 | 5.2 | 8.7 | 0.00 | 0.00 | 0.00 | 49 | 1012.7 |
| 20260505010604 | 49 | 313 | 3.5 | 10.4 | 0.00 | 0.00 | 0.00 | 50 | 1012.7 |
| 20260505010404 | 49 | 298 | 3.5 | 13.9 | 0.00 | 0.00 | 0.00 | 50 | 1012.6 |
| 20260505010204 | 49 | 284 | 5.2 | 14.8 | 0.00 | 0.00 | 0.00 | 49 | 1012.6 |
| 20260505010005 | 49 | 286 | 3.5 | 14.8 | 0.00 | 0.00 | 0.00 | 50 | 1012.7 |
| 20260505005804 | 49 | 306 | 6.1 | 14.8 | 0.00 | 0.00 | 0.00 | 49 | 1012.7 |
| 20260505005604 | 50 | 311 | 7.8 | 14.8 | 0.00 | 0.00 | 0.00 | 49 | 1012.7 |
| 20260505005404 | 50 | 310 | 8.7 | 14.8 | 0.00 | 0.00 | 0.00 | 49 | 1012.7 |
| 20260505005204 | 50 | 302 | 8.7 | 14.8 | 0.00 | 0.00 | 0.00 | 49 | 1012.7 |
| 20260505005005 | 50 | 312 | 9.6 | 14.8 | 0.00 | 0.00 | 0.00 | 48 | 1012.7 |
| 20260505004804 | 50 | 288 | 6.1 | 14.8 | 0.00 | 0.00 | 0.00 | 49 | 1012.6 |
| 20260505004604 | 50 | 306 | 7.0 | 14.8 | 0.00 | 0.00 | 0.00 | 48 | 1012.7 |
| 20260505004405 | 50 | 311 | 5.2 | 14.8 | 0.00 | 0.00 | 0.00 | 48 | 1012.7 |
| 20260505004204 | 50 | 327 | 6.1 | 14.8 | 0.00 | 0.00 | 0.00 | 47 | 1012.6 |
| 20260505004004 | 50 | 314 | 7.8 | 14.8 | 0.00 | 0.00 | 0.00 | 47 | 1012.6 |
| 20260505003804 | 50 | 312 | 7.8 | 14.8 | 0.00 | 0.00 | 0.00 | 47 | 1012.7 |
| 20260505003604 | 50 | 318 | 7.0 | 14.8 | 0.00 | 0.00 | 0.00 | 47 | 1012.7 |
| 20260505003404 | 50 | 325 | 7.0 | 14.8 | 0.00 | 0.00 | 0.00 | 47 | 1012.6 |
| 20260505003204 | 50 | 328 | 7.8 | 13.0 | 0.00 | 0.00 | 0.00 | 47 | 1012.6 |
| 20260505003004 | 50 | 320 | 7.0 | 13.0 | 0.00 | 0.00 | 0.00 | 48 | 1012.6 |
| 20260505002805 | 50 | 309 | 8.7 | 13.0 | 0.00 | 0.00 | 0.00 | 47 | 1012.6 |
| 20260505002604 | 50 | 324 | 5.2 | 13.0 | 0.00 | 0.00 | 0.00 | 48 | 1012.6 |
| 20260505002425 | 50 | 328 | 8.7 | 13.0 | 0.00 | 0.00 | 0.00 | 47 | 1012.7 |
| 20260505002226 | 50 | 334 | 7.0 | 13.9 | 0.00 | 0.00 | 0.00 | 49 | 1012.7 |
| 20260505002025 | 50 | 299 | 7.8 | 16.5 | 0.00 | 0.00 | 0.00 | 48 | 1012.6 |
| 20260505001805 | 50 | 308 | 9.6 | 16.5 | 0.00 | 0.00 | 0.00 | 48 | 1012.6 |
| 20260505001604 | 50 | 318 | 8.7 | 16.5 | 0.00 | 0.00 | 0.00 | 49 | 1012.5 |
| 20260505001405 | 50 | 308 | 9.6 | 16.5 | 0.00 | 0.00 | 0.00 | 49 | 1012.5 |
| 20260505001204 | 50 | 320 | 8.7 | 14.8 | 0.00 | 0.00 | 0.00 | 49 | 1012.5 |
| 20260505001004 | 50 | 321 | 8.7 | 13.9 | 0.00 | 0.00 | 0.00 | 50 | 1012.6 |
| 20260505000805 | 50 | 320 | 8.7 | 13.9 | 0.00 | 0.00 | 0.00 | 50 | 1012.6 |
| 20260505000604 | 50 | 324 | 7.0 | 14.8 | 0.00 | 0.00 | 0.00 | 50 | 1012.5 |
| 20260505000405 | 50 | 328 | 9.6 | 14.8 | 0.00 | 0.00 | 0.00 | 50 | 1012.5 |
| 20260505000205 | 50 | 345 | 7.8 | 15.6 | 0.00 | 0.00 | 0.00 | 49 | 1012.5 |
| 20260505000007 | 50 | 327 | 7.8 | 16.5 | 0.00 | 0.00 | 0.00 | 49 | 1012.5 |
| 20260504235804 | 50 | 334 | 8.7 | 16.5 | 0.00 | 0.00 | 0.00 | 49 | 1012.5 |
| 20260504235605 | 50 | 310 | 8.7 | 16.5 | 0.00 | 0.00 | 0.00 | 49 | 1012.5 |
| 20260504235404 | 50 | 309 | 10.4 | 16.5 | 0.00 | 0.00 | 0.00 | 49 | 1012.6 |
| 20260504235204 | 50 | 323 | 10.4 | 16.5 | 0.00 | 0.00 | 0.00 | 49 | 1012.5 |
| 20260504235004 | 50 | 324 | 7.8 | 16.5 | 0.00 | 0.00 | 0.00 | 49 | 1012.5 |
| 20260504234804 | 50 | 330 | 8.7 | 16.5 | 0.00 | 0.00 | 0.00 | 49 | 1012.5 |
| 20260504234604 | 50 | 306 | 9.6 | 16.5 | 0.00 | 0.00 | 0.00 | 49 | 1012.6 |
| 20260504234405 | 51 | 306 | 9.6 | 15.6 | 0.00 | 0.00 | 0.00 | 49 | 1012.6 |
| 20260504234204 | 51 | 321 | 8.7 | 15.6 | 0.00 | 0.00 | 0.00 | 49 | 1012.6 |
| 20260504234005 | 51 | 320 | 9.6 | 15.6 | 0.00 | 0.00 | 0.00 | 48 | 1012.6 |
| 20260504233804 | 51 | 305 | 8.7 | 15.6 | 0.00 | 0.00 | 0.00 | 48 | 1012.6 |
| 20260504233604 | 51 | 299 | 10.4 | 15.6 | 0.00 | 0.00 | 0.00 | 47 | 1012.6 |
| 20260504233404 | 51 | 301 | 8.7 | 15.6 | 0.00 | 0.00 | 0.00 | 48 | 1012.5 |
| 20260504233205 | 51 | 302 | 7.0 | 15.6 | 0.00 | 0.00 | 0.00 | 49 | 1012.5 |
| 20260504233004 | 51 | 296 | 7.0 | 15.6 | 0.00 | 0.00 | 0.00 | 49 | 1012.5 |
| 20260504232804 | 51 | 301 | 10.4 | 15.6 | 0.00 | 0.00 | 0.00 | 48 | 1012.5 |
| 20260504232604 | 51 | 283 | 8.7 | 15.6 | 0.00 | 0.00 | 0.00 | 49 | 1012.5 |
| 20260504232404 | 51 | 288 | 7.8 | 14.8 | 0.00 | 0.00 | 0.00 | 48 | 1012.4 |
| 20260504232204 | 51 | 313 | 7.0 | 14.8 | 0.00 | 0.00 | 0.00 | 48 | 1012.5 |
| 20260504232004 | 51 | 301 | 7.0 | 14.8 | 0.00 | 0.00 | 0.00 | 48 | 1012.5 |
| 20260504231804 | 50 | 312 | 8.7 | 14.8 | 0.00 | 0.00 | 0.00 | 48 | 1012.5 |
| 20260504231604 | 50 | 301 | 7.8 | 14.8 | 0.00 | 0.00 | 0.00 | 48 | 1012.5 |
| 20260504231404 | 50 | 319 | 8.7 | 13.9 | 0.00 | 0.00 | 0.00 | 47 | 1012.5 |
| 20260504231204 | 50 | 305 | 7.8 | 13.9 | 0.00 | 0.00 | 0.00 | 47 | 1012.5 |
| 20260504231005 | 51 | 287 | 9.6 | 13.9 | 0.00 | 0.00 | 0.00 | 46 | 1012.4 |
| 20260504230804 | 51 | 291 | 8.7 | 13.9 | 0.00 | 0.00 | 0.00 | 47 | 1012.5 |
| 20260504230604 | 51 | 297 | 9.6 | 15.6 | 0.00 | 0.00 | 0.00 | 46 | 1012.6 |
| 20260504230404 | 51 | 293 | 8.7 | 15.6 | 0.00 | 0.00 | 0.00 | 46 | 1012.5 |
| 20260504230204 | 51 | 310 | 7.0 | 15.6 | 0.00 | 0.00 | 0.00 | 47 | 1012.5 |
| 20260504230004 | 51 | 311 | 9.6 | 15.6 | 0.00 | 0.00 | 0.00 | 46 | 1012.6 |
| 20260504225804 | 51 | 327 | 9.6 | 15.6 | 0.00 | 0.00 | 0.00 | 46 | 1012.5 |
| 20260504225604 | 51 | 308 | 7.8 | 17.4 | 0.00 | 0.00 | 0.00 | 47 | 1012.5 |
| 20260504225404 | 51 | 298 | 6.1 | 20.9 | 0.00 | 0.00 | 0.00 | 47 | 1012.4 |
| 20260504225204 | 51 | 313 | 7.0 | 20.9 | 0.00 | 0.00 | 0.00 | 47 | 1012.4 |
| 20260504225005 | 51 | 323 | 8.7 | 20.9 | 0.00 | 0.00 | 0.00 | 46 | 1012.4 |
| 20260504224804 | 51 | 315 | 12.2 | 20.9 | 0.00 | 0.00 | 0.00 | 46 | 1012.3 |
| 20260504224604 | 51 | 336 | 10.4 | 20.9 | 0.00 | 0.00 | 0.00 | 46 | 1012.3 |
| 20260504224405 | 51 | 324 | 7.8 | 17.4 | 0.00 | 0.00 | 0.00 | 47 | 1012.4 |
| 20260504224204 | 51 | 320 | 10.4 | 21.7 | 0.00 | 0.00 | 0.00 | 46 | 1012.4 |
| 20260504224004 | 52 | 324 | 9.6 | 21.7 | 0.00 | 0.00 | 0.00 | 46 | 1012.4 |
| 20260504223805 | 52 | 331 | 9.6 | 21.7 | 0.00 | 0.00 | 0.00 | 46 | 1012.3 |
| 20260504223604 | 52 | 336 | 10.4 | 21.7 | 0.00 | 0.00 | 0.00 | 46 | 1012.4 |
| 20260504223404 | 52 | 331 | 13.9 | 21.7 | 0.00 | 0.00 | 0.00 | 45 | 1012.4 |
| 20260504223204 | 52 | 330 | 10.4 | 17.4 | 0.00 | 0.00 | 0.00 | 46 | 1012.3 |
| 20260504223004 | 52 | 318 | 8.7 | 17.4 | 0.00 | 0.00 | 0.00 | 46 | 1012.4 |
| 20260504222804 | 52 | 316 | 10.4 | 17.4 | 0.00 | 0.00 | 0.00 | 46 | 1012.4 |
| 20260504222605 | 52 | 331 | 8.7 | 17.4 | 0.00 | 0.00 | 0.00 | 47 | 1012.3 |
| 20260504222425 | 53 | 328 | 8.7 | 17.4 | 0.00 | 0.00 | 0.00 | 47 | 1012.3 |
| 20260504222226 | 53 | 335 | 9.6 | 18.2 | 0.00 | 0.00 | 0.00 | 46 | 1012.3 |
| 20260504222025 | 53 | 338 | 8.7 | 18.2 | 0.00 | 0.00 | 0.00 | 47 | 1012.2 |
| 20260504221804 | 53 | 331 | 8.7 | 18.2 | 0.00 | 0.00 | 0.00 | 46 | 1012.2 |
| 20260504221604 | 53 | 329 | 9.6 | 18.2 | 0.00 | 0.00 | 0.00 | 46 | 1012.2 |
| 20260504221405 | 53 | 329 | 11.3 | 18.2 | 0.00 | 0.00 | 0.00 | 46 | 1012.3 |
| 20260504221204 | 53 | 324 | 10.4 | 16.5 | 0.00 | 0.00 | 0.00 | 46 | 1012.3 |
| 20260504221004 | 53 | 339 | 10.4 | 16.5 | 0.00 | 0.00 | 0.00 | 46 | 1012.2 |
| 20260504220804 | 53 | 334 | 10.4 | 16.5 | 0.00 | 0.00 | 0.00 | 46 | 1012.2 |
| 20260504220604 | 53 | 345 | 10.4 | 15.6 | 0.00 | 0.00 | 0.00 | 47 | 1012.2 |
| 20260504220404 | 53 | 326 | 7.0 | 19.1 | 0.00 | 0.00 | 0.00 | 47 | 1012.3 |
| 20260504220205 | 53 | 333 | 8.7 | 19.1 | 0.00 | 0.00 | 0.00 | 47 | 1012.3 |
| 20260504220004 | 53 | 335 | 7.8 | 19.1 | 0.00 | 0.00 | 0.00 | 48 | 1012.2 |
| 20260504215804 | 53 | 339 | 7.0 | 19.1 | 0.00 | 0.00 | 0.00 | 47 | 1012.2 |
| 20260504215605 | 53 | 346 | 11.3 | 19.1 | 0.00 | 0.00 | 0.00 | 46 | 1012.2 |
| 20260504215404 | 53 | 331 | 7.8 | 14.8 | 0.00 | 0.00 | 0.00 | 47 | 1012.2 |
| 20260504215204 | 52 | 313 | 9.6 | 14.8 | 0.00 | 0.00 | 0.00 | 47 | 1012.2 |
| 20260504215004 | 52 | 306 | 10.4 | 16.5 | 0.00 | 0.00 | 0.00 | 46 | 1012.2 |
| 20260504214804 | 52 | 318 | 8.7 | 17.4 | 0.00 | 0.00 | 0.00 | 48 | 1012.2 |
| 20260504214604 | 52 | 324 | 7.8 | 17.4 | 0.00 | 0.00 | 0.00 | 48 | 1012.4 |
| 20260504214405 | 52 | 342 | 9.6 | 18.2 | 0.00 | 0.00 | 0.00 | 46 | 1012.4 |
| 20260504214204 | 52 | 334 | 8.7 | 18.2 | 0.00 | 0.00 | 0.00 | 45 | 1012.4 |
| 20260504214004 | 53 | 329 | 12.2 | 18.2 | 0.00 | 0.00 | 0.00 | 45 | 1012.5 |
| 20260504213804 | 53 | 329 | 10.4 | 18.2 | 0.00 | 0.00 | 0.00 | 45 | 1012.5 |
| 20260504213604 | 53 | 329 | 11.3 | 18.2 | 0.00 | 0.00 | 0.00 | 45 | 1012.5 |
| 20260504213404 | 53 | 316 | 12.2 | 18.2 | 0.00 | 0.00 | 0.00 | 46 | 1012.6 |
| 20260504213204 | 52 | 327 | 9.6 | 18.2 | 0.00 | 0.00 | 0.00 | 46 | 1012.6 |
| 20260504213025 | 52 | 328 | 11.3 | 18.2 | 0.00 | 0.00 | 0.00 | 45 | 1012.5 |
| 20260504212828 | 52 | 331 | 11.3 | 18.2 | 0.00 | 0.00 | 0.00 | 46 | 1012.6 |
| 20260504212625 | 52 | 327 | 10.4 | 18.2 | 0.00 | 0.00 | 0.00 | 46 | 1012.5 |
| 20260504212425 | 52 | 332 | 12.2 | 20.9 | 0.00 | 0.00 | 0.00 | 45 | 1012.5 |
| 20260504212225 | 52 | 346 | 9.6 | 20.9 | 0.00 | 0.00 | 0.00 | 45 | 1012.5 |
| 20260504212025 | 52 | 328 | 11.3 | 20.9 | 0.00 | 0.00 | 0.00 | 45 | 1012.5 |
| 20260504211804 | 53 | 341 | 11.3 | 20.9 | 0.00 | 0.00 | 0.00 | 44 | 1012.5 |
| 20260504211604 | 53 | 343 | 10.4 | 20.9 | 0.00 | 0.00 | 0.00 | 44 | 1012.4 |
| 20260504211404 | 53 | 338 | 11.3 | 23.5 | 0.00 | 0.00 | 0.00 | 44 | 1012.5 |
| 20260504211204 | 53 | 336 | 12.2 | 23.5 | 0.00 | 0.00 | 0.00 | 42 | 1012.5 |
| 20260504211004 | 53 | 324 | 9.6 | 23.5 | 0.00 | 0.00 | 0.00 | 43 | 1012.6 |
| 20260504210804 | 53 | 307 | 12.2 | 23.5 | 0.00 | 0.00 | 0.00 | 43 | 1012.6 |
| 20260504210604 | 53 | 336 | 12.2 | 23.5 | 0.00 | 0.00 | 0.00 | 43 | 1012.6 |
| 20260504210405 | 53 | 323 | 10.4 | 20.9 | 0.00 | 0.00 | 0.00 | 43 | 1012.6 |
| 20260504210204 | 53 | 336 | 12.2 | 20.9 | 0.00 | 0.00 | 0.00 | 43 | 1012.7 |
| 20260504210005 | 53 | 320 | 13.0 | 20.9 | 0.00 | 0.00 | 0.00 | 43 | 1012.6 |
| 20260504205805 | 53 | 314 | 12.2 | 19.1 | 0.00 | 0.00 | 0.00 | 43 | 1012.6 |
| 20260504205605 | 54 | 332 | 11.3 | 21.7 | 0.00 | 0.00 | 0.00 | 43 | 1012.7 |
| 20260504205404 | 53 | 310 | 12.2 | 22.6 | 0.00 | 0.00 | 0.00 | 43 | 1012.7 |
| 20260504205204 | 53 | 337 | 9.6 | 23.5 | 0.00 | 0.00 | 0.00 | 44 | 1012.7 |
| 20260504205004 | 53 | 329 | 11.3 | 23.5 | 0.00 | 0.00 | 0.00 | 44 | 1012.7 |
| 20260504204825 | 53 | 324 | 13.0 | 23.5 | 0.00 | 0.00 | 0.00 | 44 | 1012.8 |
| 20260504204625 | 54 | 307 | 13.0 | 23.5 | 0.00 | 0.01 | 0.00 | 44 | 1012.7 |
| 20260504204425 | 54 | 331 | 14.8 | 23.5 | 0.00 | 0.01 | 0.00 | 43 | 1012.7 |
| 20260504204204 | 54 | 333 | 11.3 | 22.6 | 0.00 | 0.01 | 0.00 | 45 | 1012.8 |
| 20260504204004 | 54 | 341 | 11.3 | 22.6 | 0.00 | 0.02 | 0.00 | 45 | 1012.8 |
| 20260504203804 | 54 | 340 | 11.3 | 22.6 | 0.00 | 0.03 | 0.00 | 44 | 1012.8 |
| 20260504203604 | 54 | 347 | 13.0 | 22.6 | 0.00 | 0.03 | 0.00 | 43 | 1012.8 |
| 20260504203405 | 54 | 317 | 11.3 | 19.1 | 0.00 | 0.04 | 0.00 | 44 | 1012.9 |
| 20260504203204 | 54 | 311 | 7.8 | 19.1 | 0.00 | 0.05 | 0.00 | 45 | 1012.8 |
| 20260504203007 | 54 | 329 | 10.4 | 19.1 | 0.00 | 0.06 | 0.00 | 46 | 1012.8 |
| 20260504202805 | 53 | 332 | 6.1 | 19.1 | 0.00 | 0.07 | 0.00 | 47 | 1012.8 |
| 20260504202605 | 53 | 333 | 8.7 | 19.1 | 0.00 | 0.07 | 0.00 | 46 | 1012.8 |
| 20260504202425 | 53 | 338 | 9.6 | 20.9 | 0.00 | 0.07 | 0.00 | 46 | 1012.8 |
| 20260504202225 | 53 | 328 | 11.3 | 20.9 | 0.00 | 0.07 | 0.00 | 44 | 1013.0 |
| 20260504202025 | 53 | 337 | 12.2 | 20.9 | 0.00 | 0.07 | 0.00 | 45 | 1012.8 |
| 20260504201804 | 52 | 331 | 11.3 | 20.9 | 0.00 | 0.07 | 0.00 | 45 | 1012.9 |
| 20260504201604 | 52 | 321 | 12.2 | 20.9 | 0.00 | 0.07 | 0.00 | 45 | 1013.0 |
| 20260504201404 | 52 | 349 | 11.3 | 19.1 | 0.00 | 0.07 | 0.00 | 47 | 1012.7 |
| 20260504201204 | 52 | 347 | 10.4 | 19.1 | 0.00 | 0.07 | 0.00 | 47 | 1012.8 |
| 20260504201004 | 52 | 335 | 11.3 | 19.1 | 0.00 | 0.07 | 0.00 | 47 | 1012.9 |
| 20260504200804 | 52 | 340 | 10.4 | 19.1 | 0.00 | 0.07 | 0.00 | 47 | 1012.8 |
| 20260504200604 | 52 | 335 | 8.7 | 19.1 | 0.00 | 0.07 | 0.00 | 47 | 1012.8 |
| 20260504200408 | 52 | 352 | 10.4 | 19.1 | 0.00 | 0.07 | 0.00 | 46 | 1012.8 |
| 20260504200204 | 52 | 345 | 10.4 | 22.6 | 0.00 | 0.07 | 0.00 | 45 | 1012.8 |
| 20260504200004 | 52 | 333 | 12.2 | 22.6 | 0.00 | 0.07 | 0.00 | 45 | 1012.9 |
| 20260504195804 | 53 | 343 | 13.9 | 22.6 | 0.00 | 0.07 | 0.00 | 45 | 1012.8 |
| 20260504195604 | 53 | 326 | 10.4 | 22.6 | 0.00 | 0.07 | 0.00 | 46 | 1013.0 |
| 20260504195404 | 52 | 348 | 11.3 | 22.6 | 0.00 | 0.07 | 0.00 | 46 | 1012.8 |
| 20260504195204 | 52 | 338 | 7.8 | 19.1 | 0.00 | 0.07 | 0.00 | 48 | 1012.9 |
| 20260504195004 | 52 | 323 | 7.8 | 19.1 | 0.00 | 0.07 | 0.00 | 48 | 1012.9 |
| 20260504194804 | 52 | 340 | 11.3 | 19.1 | 0.00 | 0.07 | 0.00 | 47 | 1012.8 |
| 20260504194604 | 52 | 343 | 9.6 | 19.1 | 0.00 | 0.07 | 0.00 | 48 | 1012.8 |
| 20260504194404 | 52 | 324 | 7.8 | 19.1 | 0.00 | 0.07 | 0.00 | 50 | 1012.9 |
| 20260504194204 | 51 | 340 | 10.4 | 19.1 | 0.00 | 0.07 | 0.00 | 48 | 1012.8 |
| 20260504194004 | 51 | 341 | 10.4 | 19.1 | 0.00 | 0.07 | 0.00 | 47 | 1012.8 |
| 20260504193805 | 51 | 346 | 11.3 | 19.1 | 0.00 | 0.07 | 0.00 | 49 | 1012.7 |
| 20260504193604 | 51 | 332 | 7.0 | 21.7 | 0.00 | 0.07 | 0.00 | 49 | 1012.8 |
| 20260504193404 | 51 | 317 | 10.4 | 21.7 | 0.00 | 0.07 | 0.00 | 49 | 1012.8 |
| 20260504193204 | 51 | 306 | 10.4 | 21.7 | 0.00 | 0.07 | 0.00 | 48 | 1012.8 |
| 20260504193004 | 51 | 304 | 11.3 | 21.7 | 0.00 | 0.07 | 0.00 | 48 | 1012.8 |
| 20260504192804 | 51 | 311 | 11.3 | 21.7 | 0.00 | 0.07 | 0.00 | 48 | 1012.8 |
| 20260504192605 | 51 | 331 | 9.6 | 19.1 | 0.00 | 0.07 | 0.00 | 51 | 1012.9 |
| 20260504192404 | 51 | 334 | 12.2 | 19.1 | 0.00 | 0.07 | 0.00 | 50 | 1012.8 |
| 20260504192204 | 51 | 347 | 9.6 | 19.1 | 0.00 | 0.07 | 0.00 | 49 | 1012.8 |
| 20260504192004 | 51 | 337 | 11.3 | 19.1 | 0.00 | 0.07 | 0.00 | 49 | 1012.9 |
| 20260504191825 | 51 | 332 | 10.4 | 18.2 | 0.00 | 0.07 | 0.00 | 48 | 1012.9 |
| 20260504191625 | 51 | 342 | 11.3 | 17.4 | 0.00 | 0.07 | 0.00 | 47 | 1012.9 |
| 20260504191426 | 51 | 338 | 9.6 | 23.5 | 0.00 | 0.07 | 0.00 | 46 | 1013.0 |
| 20260504191204 | 51 | 323 | 7.8 | 23.5 | 0.00 | 0.07 | 0.00 | 49 | 1013.0 |
| 20260504191004 | 51 | 318 | 8.7 | 23.5 | 0.00 | 0.07 | 0.00 | 48 | 1013.1 |
| 20260504190804 | 51 | 328 | 8.7 | 23.5 | 0.00 | 0.07 | 0.00 | 47 | 1013.1 |
| 20260504190625 | 51 | 339 | 10.4 | 23.5 | 0.00 | 0.07 | 0.00 | 47 | 1013.0 |
| 20260504190425 | 51 | 340 | 12.2 | 19.1 | 0.00 | 0.07 | 0.00 | 48 | 1012.8 |
| 20260504190225 | 51 | 324 | 9.6 | 19.1 | 0.00 | 0.07 | 0.00 | 48 | 1012.9 |
| 20260504190007 | 51 | 326 | 8.7 | 19.1 | 0.00 | 0.07 | 0.00 | 49 | 1012.8 |
| 20260504185804 | 51 | 309 | 8.7 | 18.2 | 0.00 | 0.07 | 0.00 | 49 | 1012.9 |
| 20260504185605 | 51 | 299 | 12.2 | 18.2 | 0.00 | 0.07 | 0.00 | 48 | 1012.9 |
| 20260504185404 | 51 | 324 | 10.4 | 18.2 | 0.00 | 0.07 | 0.00 | 49 | 1012.8 |
| 20260504185204 | 51 | 329 | 10.4 | 18.2 | 0.00 | 0.07 | 0.00 | 49 | 1012.8 |
| 20260504185004 | 51 | 330 | 9.6 | 16.5 | 0.00 | 0.07 | 0.00 | 49 | 1012.8 |
| 20260504184804 | 51 | 327 | 8.7 | 16.5 | 0.00 | 0.07 | 0.00 | 49 | 1012.9 |
| 20260504184604 | 51 | 322 | 9.6 | 15.6 | 0.00 | 0.07 | 0.00 | 50 | 1012.8 |
| 20260504184404 | 51 | 328 | 11.3 | 21.7 | 0.00 | 0.07 | 0.00 | 50 | 1012.8 |
| 20260504184204 | 51 | 318 | 10.4 | 21.7 | 0.00 | 0.07 | 0.00 | 50 | 1012.8 |
| 20260504184005 | 51 | 317 | 9.6 | 21.7 | 0.00 | 0.07 | 0.00 | 50 | 1012.7 |
| 20260504183805 | 51 | 305 | 9.6 | 21.7 | 0.00 | 0.07 | 0.00 | 50 | 1012.7 |
| 20260504183604 | 51 | 301 | 12.2 | 21.7 | 0.00 | 0.07 | 0.00 | 49 | 1012.7 |
| 20260504183405 | 51 | 312 | 10.4 | 19.1 | 0.00 | 0.07 | 0.00 | 49 | 1012.8 |
| 20260504183204 | 51 | 311 | 13.0 | 19.1 | 0.00 | 0.07 | 0.00 | 50 | 1012.8 |
| 20260504183004 | 51 | 331 | 12.2 | 19.1 | 0.00 | 0.07 | 0.00 | 51 | 1012.7 |
| 20260504182804 | 51 | 326 | 10.4 | 18.2 | 0.00 | 0.07 | 0.00 | 52 | 1012.7 |
| 20260504182605 | 51 | 333 | 10.4 | 18.2 | 0.00 | 0.07 | 0.00 | 52 | 1012.7 |
| 20260504182404 | 51 | 348 | 10.4 | 18.2 | 0.00 | 0.07 | 0.00 | 52 | 1012.8 |
| 20260504182204 | 51 | 331 | 9.6 | 22.6 | 0.00 | 0.07 | 0.00 | 50 | 1012.8 |
| 20260504182004 | 51 | 330 | 11.3 | 22.6 | 0.00 | 0.07 | 0.00 | 51 | 1012.8 |
| 20260504181825 | 51 | 312 | 11.3 | 22.6 | 0.00 | 0.07 | 0.00 | 50 | 1012.8 |
| 20260504181625 | 52 | 313 | 12.2 | 22.6 | 0.00 | 0.07 | 0.00 | 51 | 1012.8 |
| 20260504181425 | 52 | 323 | 10.4 | 22.6 | 0.00 | 0.07 | 0.00 | 51 | 1012.8 |
| 20260504181204 | 52 | 323 | 12.2 | 21.7 | 0.00 | 0.07 | 0.00 | 50 | 1012.9 |
| 20260504181004 | 52 | 315 | 11.3 | 18.2 | 0.00 | 0.07 | 0.00 | 51 | 1012.8 |
| 20260504180804 | 52 | 322 | 7.8 | 13.9 | 0.00 | 0.07 | 0.00 | 53 | 1012.9 |
| 20260504180604 | 52 | 321 | 7.0 | 15.6 | 0.00 | 0.07 | 0.00 | 54 | 1012.9 |
| 20260504180404 | 52 | 318 | 8.7 | 18.2 | 0.00 | 0.07 | 0.00 | 52 | 1012.8 |
| 20260504180205 | 52 | 334 | 7.0 | 18.2 | 0.00 | 0.07 | 0.00 | 53 | 1012.8 |
| 20260504180004 | 52 | 323 | 8.7 | 18.2 | 0.00 | 0.07 | 0.00 | 53 | 1012.8 |
| 20260504175804 | 52 | 328 | 9.6 | 18.2 | 0.00 | 0.07 | 0.00 | 53 | 1012.8 |
| 20260504175604 | 52 | 339 | 11.3 | 19.1 | 0.00 | 0.07 | 0.00 | 52 | 1012.7 |
| 20260504175404 | 51 | 339 | 8.7 | 19.1 | 0.00 | 0.07 | 0.00 | 52 | 1012.9 |
| 20260504175204 | 51 | 347 | 9.6 | 19.1 | 0.00 | 0.07 | 0.00 | 52 | 1012.9 |
| 20260504175004 | 51 | 324 | 10.4 | 19.1 | 0.00 | 0.07 | 0.00 | 53 | 1012.9 |
| 20260504174804 | 51 | 329 | 11.3 | 19.1 | 0.00 | 0.07 | 0.00 | 53 | 1013.0 |
| 20260504174604 | 51 | 334 | 11.3 | 19.1 | 0.00 | 0.07 | 0.00 | 53 | 1012.9 |
| 20260504174404 | 51 | 340 | 10.4 | 20.9 | 0.00 | 0.07 | 0.00 | 54 | 1012.8 |
| 20260504174204 | 51 | 323 | 11.3 | 20.9 | 0.00 | 0.07 | 0.00 | 55 | 1012.8 |
| 20260504174004 | 50 | 331 | 12.2 | 20.9 | 0.00 | 0.07 | 0.00 | 54 | 1012.8 |
| 20260504173804 | 50 | 325 | 11.3 | 20.9 | 0.00 | 0.07 | 0.00 | 53 | 1012.8 |
| 20260504173604 | 51 | 324 | 13.9 | 21.7 | 0.00 | 0.07 | 0.00 | 54 | 1012.9 |
| 20260504173404 | 51 | 332 | 13.0 | 24.3 | 0.00 | 0.07 | 0.00 | 54 | 1012.8 |
| 20260504173204 | 51 | 328 | 11.3 | 25.2 | 0.00 | 0.07 | 0.00 | 54 | 1012.9 |
| 20260504173004 | 51 | 312 | 13.0 | 25.2 | 0.00 | 0.07 | 0.00 | 53 | 1013.1 |
| 20260504172804 | 51 | 320 | 12.2 | 25.2 | 0.00 | 0.07 | 0.00 | 53 | 1012.9 |
| 20260504172604 | 51 | 309 | 14.8 | 25.2 | 0.00 | 0.07 | 0.00 | 53 | 1012.9 |
| 20260504172404 | 51 | 318 | 13.0 | 25.2 | 0.00 | 0.07 | 0.00 | 53 | 1012.8 |
| 20260504172204 | 51 | 329 | 12.2 | 24.3 | 0.00 | 0.07 | 0.00 | 53 | 1012.7 |
| 20260504172005 | 52 | 314 | 13.0 | 24.3 | 0.00 | 0.07 | 0.00 | 53 | 1012.8 |
| 20260504171804 | 52 | 309 | 13.0 | 21.7 | 0.00 | 0.07 | 0.00 | 52 | 1012.8 |
| 20260504171604 | 52 | 324 | 13.0 | 21.7 | 0.00 | 0.07 | 0.00 | 53 | 1012.7 |
| 20260504171405 | 52 | 333 | 11.3 | 18.2 | 0.00 | 0.07 | 0.00 | 52 | 1012.6 |
| 20260504171204 | 52 | 336 | 10.4 | 18.2 | 0.00 | 0.07 | 0.00 | 53 | 1012.5 |
| 20260504171004 | 53 | 324 | 11.3 | 22.6 | 0.00 | 0.07 | 0.00 | 52 | 1012.4 |
| 20260504170804 | 53 | 312 | 12.2 | 22.6 | 0.00 | 0.07 | 0.00 | 53 | 1012.5 |
| 20260504170604 | 53 | 325 | 8.7 | 22.6 | 0.00 | 0.07 | 0.00 | 53 | 1012.5 |
| 20260504170404 | 52 | 332 | 10.4 | 22.6 | 0.00 | 0.07 | 0.00 | 53 | 1012.6 |
| 20260504170204 | 52 | 346 | 7.8 | 22.6 | 0.00 | 0.07 | 0.00 | 54 | 1012.6 |
| 20260504160425 | 51 | 319 | 13.0 | 20.9 | 0.00 | 0.07 | 0.00 | 54 | 1012.2 |
| 20260504160225 | 51 | 336 | 12.2 | 18.2 | 0.00 | 0.07 | 0.00 | 54 | 1012.1 |
| 20260504151005 | 51 | 325 | 11.3 | 21.7 | 0.00 | 0.07 | 0.00 | 54 | 1012.3 |
| 20260504150804 | 51 | 328 | 12.2 | 21.7 | 0.00 | 0.07 | 0.00 | 54 | 1012.2 |
| 20260504150603 | 51 | 324 | 12.2 | 18.2 | 0.00 | 0.07 | 0.00 | 53 | 1012.3 |
| 20260504150404 | 51 | 331 | 10.4 | 18.2 | 0.00 | 0.07 | 0.00 | 54 | 1012.3 |
| 20260504150204 | 51 | 334 | 9.6 | 18.2 | 0.00 | 0.07 | 0.00 | 54 | 1012.3 |
| 20260504141204 | 49 | 339 | 6.1 | 14.8 | 0.00 | 0.07 | 0.00 | 61 | 1012.4 |
| 20260504141004 | 49 | 332 | 7.0 | 14.8 | 0.00 | 0.07 | 0.00 | 62 | 1012.4 |
| 20260504140804 | 49 | 340 | 7.0 | 14.8 | 0.00 | 0.07 | 0.00 | 62 | 1012.3 |
| 20260504140603 | 49 | 329 | 8.7 | 17.4 | 0.00 | 0.07 | 0.00 | 62 | 1012.3 |
| 20260504140404 | 49 | 329 | 8.7 | 17.4 | 0.00 | 0.07 | 0.00 | 63 | 1012.4 |
| 20260504140204 | 49 | 335 | 8.7 | 17.4 | 0.00 | 0.07 | 0.00 | 63 | 1012.2 |
| 20260504130804 | 47 | 311 | 1.7 | 3.5 | 0.00 | 0.07 | 0.00 | 64 | 1011.6 |
| 20260504130604 | 47 | 314 | 0.9 | 6.1 | 0.00 | 0.07 | 0.00 | 65 | 1011.5 |
| 20260504130404 | 47 | 302 | 1.7 | 6.1 | 0.00 | 0.07 | 0.00 | 64 | 1011.5 |
| 20260504130205 | 47 | 292 | 2.6 | 6.1 | 0.00 | 0.07 | 0.00 | 64 | 1011.4 |
| 20260504120225 | 48 | 319 | 2.6 | 4.3 | 0.00 | 0.07 | 0.00 | 60 | 1010.6 |
| 20260504110604 | 52 | 323 | 7.8 | 16.5 | 0.00 | 0.07 | 0.00 | 55 | 1008.8 |
| 20260504110404 | 52 | 328 | 7.0 | 16.5 | 0.00 | 0.07 | 0.00 | 54 | 1008.7 |
| 20260504110204 | 52 | 341 | 12.2 | 16.5 | 0.00 | 0.07 | 0.00 | 54 | 1008.7 |
| 20260504100603 | 53 | 309 | 0.9 | 3.5 | 0.00 | 0.07 | 0.00 | 50 | 1007.3 |
| 20260504100404 | 53 | 326 | 1.7 | 4.3 | 0.00 | 0.07 | 0.00 | 50 | 1007.3 |
| 20260504100204 | 54 | 10 | 2.6 | 6.1 | 0.00 | 0.07 | 0.00 | 49 | 1007.3 |
| 20260504082004 | 58 | 242 | 10.4 | 18.2 | 0.00 | 0.07 | 0.00 | 42 | 1006.8 |
| 20260504081804 | 58 | 242 | 10.4 | 16.5 | 0.00 | 0.07 | 0.00 | 42 | 1006.9 |
| 20260504081604 | 58 | 243 | 11.3 | 16.5 | 0.00 | 0.07 | 0.00 | 43 | 1006.9 |
| 20260504081403 | 58 | 245 | 11.3 | 16.5 | 0.00 | 0.07 | 0.00 | 43 | 1006.9 |
| 20260504081204 | 58 | 241 | 9.6 | 16.5 | 0.00 | 0.07 | 0.00 | 43 | 1006.9 |
| 20260504081003 | 58 | 253 | 10.4 | 16.5 | 0.00 | 0.07 | 0.00 | 43 | 1006.9 |
| 20260504080804 | 58 | 254 | 9.6 | 17.4 | 0.00 | 0.07 | 0.00 | 43 | 1006.9 |
| 20260504080604 | 58 | 257 | 8.7 | 18.2 | 0.00 | 0.07 | 0.00 | 43 | 1006.9 |
| 20260504080404 | 58 | 257 | 8.7 | 18.2 | 0.00 | 0.07 | 0.00 | 43 | 1006.9 |
| 20260504080204 | 58 | 253 | 8.7 | 18.2 | 0.00 | 0.07 | 0.00 | 43 | 1006.9 |
| 20260504070404 | 59 | 240 | 10.4 | 19.1 | 0.00 | 0.07 | 0.00 | 45 | 1007.3 |
| 20260504070204 | 59 | 238 | 13.9 | 21.7 | 0.00 | 0.07 | 0.00 | 44 | 1007.2 |
| 20260504060203 | 58 | 248 | 7.0 | 11.3 | 0.00 | 0.07 | 0.00 | 49 | 1007.7 |
| 20260504050604 | 58 | 248 | 8.7 | 14.8 | 0.00 | 0.07 | 0.07 | 49 | 1008.4 |
| 20260504050404 | 58 | 247 | 9.6 | 13.9 | 0.00 | 0.07 | 0.07 | 49 | 1008.5 |
| 20260504050204 | 58 | 247 | 9.6 | 16.5 | 0.00 | 0.07 | 0.07 | 50 | 1008.5 |
| 20260504050007 | 58 | 254 | 8.7 | 16.5 | 0.00 | 0.07 | 0.07 | 50 | 1008.5 |
| 20260504045804 | 58 | 249 | 8.7 | 16.5 | 0.00 | 0.07 | 0.07 | 50 | 1008.5 |
| 20260504045604 | 58 | 252 | 9.6 | 16.5 | 0.00 | 0.07 | 0.07 | 49 | 1008.5 |
| 20260504045425 | 58 | 248 | 10.4 | 16.5 | 0.00 | 0.07 | 0.07 | 50 | 1008.5 |
| 20260504045225 | 58 | 245 | 9.6 | 16.5 | 0.00 | 0.07 | 0.07 | 50 | 1008.5 |
| 20260504045025 | 58 | 241 | 9.6 | 17.4 | 0.00 | 0.07 | 0.07 | 50 | 1008.5 |
| 20260504044804 | 58 | 239 | 11.3 | 17.4 | 0.00 | 0.07 | 0.07 | 50 | 1008.4 |
| 20260504044604 | 58 | 247 | 9.6 | 17.4 | 0.00 | 0.07 | 0.07 | 50 | 1008.5 |
| 20260504044404 | 58 | 257 | 10.4 | 17.4 | 0.00 | 0.07 | 0.07 | 50 | 1008.5 |
| 20260504044204 | 58 | 242 | 11.3 | 17.4 | 0.00 | 0.07 | 0.07 | 50 | 1008.5 |
| 20260504044004 | 58 | 244 | 9.6 | 14.8 | 0.00 | 0.07 | 0.07 | 50 | 1008.5 |
| 20260504043804 | 58 | 245 | 9.6 | 14.8 | 0.00 | 0.07 | 0.07 | 50 | 1008.5 |
| 20260504043603 | 58 | 250 | 8.7 | 16.5 | 0.00 | 0.07 | 0.07 | 50 | 1008.6 |
| 20260504043403 | 58 | 249 | 7.0 | 16.5 | 0.00 | 0.07 | 0.07 | 50 | 1008.6 |
| 20260504043204 | 58 | 255 | 8.7 | 16.5 | 0.00 | 0.07 | 0.07 | 50 | 1008.5 |
| 20260504043004 | 58 | 262 | 9.6 | 16.5 | 0.00 | 0.07 | 0.07 | 50 | 1008.6 |
| 20260504042804 | 58 | 249 | 9.6 | 16.5 | 0.00 | 0.07 | 0.07 | 50 | 1008.5 |
| 20260504042604 | 58 | 250 | 9.6 | 15.6 | 0.00 | 0.07 | 0.07 | 50 | 1008.5 |
| 20260504042425 | 59 | 259 | 8.7 | 15.6 | 0.00 | 0.07 | 0.07 | 50 | 1008.5 |
| 20260504042224 | 59 | 255 | 8.7 | 15.6 | 0.00 | 0.07 | 0.07 | 50 | 1008.5 |
| 20260504042024 | 59 | 249 | 10.4 | 15.6 | 0.00 | 0.07 | 0.07 | 50 | 1008.4 |
| 20260504041804 | 59 | 241 | 10.4 | 15.6 | 0.00 | 0.07 | 0.07 | 49 | 1008.5 |
| 20260504041604 | 59 | 260 | 8.7 | 15.6 | 0.00 | 0.07 | 0.07 | 49 | 1008.5 |
| 20260504041404 | 59 | 254 | 8.7 | 16.5 | 0.00 | 0.07 | 0.07 | 49 | 1008.5 |
| 20260504041204 | 59 | 253 | 8.7 | 17.4 | 0.00 | 0.07 | 0.07 | 49 | 1008.5 |
| 20260504041003 | 59 | 258 | 8.7 | 17.4 | 0.00 | 0.07 | 0.07 | 49 | 1008.4 |
| 20260504040804 | 60 | 258 | 9.6 | 18.2 | 0.00 | 0.07 | 0.07 | 49 | 1008.4 |
| 20260504040604 | 60 | 250 | 9.6 | 18.2 | 0.00 | 0.07 | 0.07 | 48 | 1008.5 |
| 20260504040404 | 60 | 245 | 10.4 | 18.2 | 0.00 | 0.07 | 0.07 | 48 | 1008.4 |
| 20260504040204 | 60 | 250 | 12.2 | 18.2 | 0.00 | 0.07 | 0.07 | 48 | 1008.4 |
| 20260504040004 | 60 | 242 | 12.2 | 18.2 | 0.00 | 0.07 | 0.07 | 48 | 1008.5 |
| 20260504035803 | 60 | 243 | 11.3 | 18.2 | 0.00 | 0.07 | 0.07 | 49 | 1008.4 |
| 20260504035604 | 60 | 248 | 10.4 | 18.2 | 0.00 | 0.07 | 0.07 | 49 | 1008.4 |
| 20260504035425 | 60 | 240 | 10.4 | 18.2 | 0.00 | 0.07 | 0.07 | 49 | 1008.5 |
| 20260504035225 | 60 | 244 | 9.6 | 18.2 | 0.00 | 0.07 | 0.07 | 49 | 1008.5 |
| 20260504035025 | 59 | 246 | 9.6 | 13.9 | 0.00 | 0.07 | 0.07 | 49 | 1008.5 |
| 20260504034825 | 59 | 237 | 10.4 | 13.9 | 0.00 | 0.07 | 0.07 | 49 | 1008.5 |
| 20260504034625 | 59 | 241 | 8.7 | 13.0 | 0.00 | 0.07 | 0.07 | 50 | 1008.5 |
| 20260504034425 | 58 | 249 | 7.0 | 13.0 | 0.00 | 0.07 | 0.07 | 51 | 1008.5 |
| 20260504034203 | 58 | 248 | 7.8 | 12.2 | 0.00 | 0.07 | 0.07 | 52 | 1008.6 |
| 20260504034004 | 58 | 241 | 7.0 | 12.2 | 0.00 | 0.07 | 0.07 | 53 | 1008.6 |
| 20260504033804 | 58 | 262 | 6.1 | 11.3 | 0.00 | 0.07 | 0.07 | 53 | 1008.6 |
| 20260504033604 | 58 | 260 | 6.1 | 13.0 | 0.00 | 0.07 | 0.07 | 53 | 1008.6 |
| 20260504033405 | 58 | 262 | 4.3 | 13.0 | 0.00 | 0.07 | 0.07 | 54 | 1008.5 |
| 20260504033204 | 58 | 259 | 7.0 | 13.0 | 0.00 | 0.07 | 0.07 | 54 | 1008.6 |
| 20260504033025 | 58 | 253 | 7.0 | 13.0 | 0.00 | 0.07 | 0.07 | 53 | 1008.6 |
| 20260504032825 | 58 | 257 | 7.0 | 13.0 | 0.00 | 0.07 | 0.07 | 53 | 1008.7 |
| 20260504032625 | 58 | 261 | 7.0 | 13.0 | 0.00 | 0.07 | 0.07 | 54 | 1008.6 |
| 20260504032403 | 58 | 249 | 7.8 | 13.0 | 0.00 | 0.07 | 0.07 | 54 | 1008.6 |
| 20260504032203 | 58 | 241 | 7.0 | 13.0 | 0.00 | 0.07 | 0.07 | 55 | 1008.6 |
| 20260504032004 | 57 | 249 | 7.0 | 13.0 | 0.00 | 0.07 | 0.07 | 55 | 1008.5 |
| 20260504031804 | 57 | 245 | 8.7 | 13.0 | 0.00 | 0.07 | 0.07 | 57 | 1008.6 |
| 20260504031604 | 57 | 246 | 8.7 | 12.2 | 0.00 | 0.07 | 0.07 | 57 | 1008.6 |
| 20260504031404 | 56 | 244 | 7.8 | 11.3 | 0.00 | 0.07 | 0.07 | 58 | 1008.6 |
| 20260504031224 | 56 | 241 | 7.0 | 11.3 | 0.00 | 0.07 | 0.07 | 60 | 1008.6 |
| 20260504031025 | 56 | 246 | 7.0 | 11.3 | 0.00 | 0.07 | 0.07 | 61 | 1008.6 |
| 20260504030825 | 55 | 252 | 7.0 | 9.6 | 0.00 | 0.07 | 0.07 | 61 | 1008.6 |
| 20260504030603 | 54 | 252 | 6.1 | 9.6 | 0.00 | 0.07 | 0.07 | 64 | 1008.6 |
| 20260504030404 | 53 | 246 | 5.2 | 9.6 | 0.00 | 0.07 | 0.07 | 65 | 1008.5 |
| 20260504030203 | 53 | 241 | 4.3 | 8.7 | 0.00 | 0.07 | 0.07 | 67 | 1008.5 |
| 20260504030004 | 52 | 251 | 1.7 | 3.5 | 0.00 | 0.07 | 0.07 | 71 | 1008.5 |
| 20260504025803 | 52 | 220 | 1.7 | 2.6 | 0.00 | 0.07 | 0.07 | 70 | 1008.6 |
| 20260504025607 | 52 | 215 | 1.7 | 2.6 | 0.00 | 0.07 | 0.07 | 70 | 1008.6 |
| 20260504025403 | 53 | 216 | 1.7 | 2.6 | 0.00 | 0.07 | 0.07 | 70 | 1008.5 |
| 20260504025203 | 53 | 216 | 0.9 | 2.6 | 0.00 | 0.07 | 0.07 | 69 | 1008.5 |
| 20260504025004 | 53 | 216 | 0.0 | 1.7 | 0.00 | 0.07 | 0.07 | 68 | 1008.5 |
| 20260504024804 | 53 | 216 | 0.0 | 1.7 | 0.00 | 0.07 | 0.07 | 67 | 1008.5 |
| 20260504024604 | 53 | 0 | 0.0 | 1.7 | 0.00 | 0.07 | 0.07 | 67 | 1008.5 |
| 20260504024404 | 53 | 216 | 0.0 | 2.6 | 0.00 | 0.07 | 0.07 | 67 | 1008.5 |
| 20260504024204 | 54 | 216 | 0.9 | 2.6 | 0.00 | 0.07 | 0.07 | 66 | 1008.4 |
| 20260504024004 | 54 | 216 | 0.9 | 2.6 | 0.00 | 0.07 | 0.07 | 66 | 1008.4 |
| 20260504023804 | 54 | 216 | 0.9 | 3.5 | 0.00 | 0.07 | 0.07 | 65 | 1008.4 |
| 20260504023604 | 54 | 216 | 1.7 | 3.5 | 0.00 | 0.07 | 0.07 | 64 | 1008.4 |
| 20260504023403 | 55 | 213 | 1.7 | 3.5 | 0.00 | 0.07 | 0.07 | 64 | 1008.4 |
| 20260504023204 | 55 | 207 | 1.7 | 3.5 | 0.00 | 0.07 | 0.07 | 64 | 1008.4 |
| 20260504023004 | 55 | 248 | 2.6 | 3.5 | 0.00 | 0.07 | 0.07 | 64 | 1008.4 |